Погода в деревне Панино

Россия / Костромская область     58°12′13″N   46°11′14″E
темп.,
°C
ветер,
м/с
пор.,
м/с
влажн.,
%
обл.,
%
осадки,
мм/ч
давл.,
гПа
погр.,
м
18 мая, ср
ср1800:00+6ссв4118659 0.0 1005572
03:00+6ссв41084100 0.0 1005602
06:00+5с4983100 0.0 1006633
09:00+6с4771100 0.0 1006806
12:00+10с3548100 0.1 10061836
15:00+11ссз454696 0.1 10061778
18:00+8ссз4656100 0.0 10071361
21:00+5ссз2473100 0.0 1008102
19 мая, чт
чт1900:00+3сз2286100 0.0 100846
03:00+2зсз2591100 0.0 1007187
06:00+3ссз2497100 1.4 1007404
09:00+5зсз3484100 2.7 1007890
12:00+7зсз457798 1.6 10081188
15:00+7сз457791 3.8 10091231
18:00+6сз378576 1.3 1009739
21:00+2сз2393100 1.8 101068
20 мая, пт
пт2000:000сз289686 0.0 1011190
03:000сз399793 0.0 1012231
06:00+2ссз389898 0.6 1013431
09:00+6ссз5772100 0.8 10131426
12:00+7с5868100 1.0 10131428
15:00+8с5864100 1.8 10131535
18:00+7ссв387997 0.9 1013937
21:00+3ссз31089100 1.1 1013265
21 мая, сб
сб2100:00+2ссз31088100 0.0 1012343
03:000ссз3990100 0.0 1012476
06:00+2ссз4985100 0.0 1010709
09:00+4ссз5867100 0.1 10091279
12:00+5с5953100 0.1 10091622
15:00+4с5973100 0.2 10091219
18:00+3с41079100 0.3 10091118
21:00+3с3107494 0.3 10091015
22 мая, вс
вс2200:00+1с4108329 0.0 1008702
03:00+1с3985100 0.0 1009768
06:00+2с49725 0.0 1009708
09:00+7с465380 0.0 10081338
12:00+8ссв4648100 0.0 10081728
15:00+10св464595 0.0 10081654
18:00+10св254974 0.0 10091572
21:00+4с1173100 0.0 101019